SCP
0 0 0 0 0 0 0 0 0 0 0 0 0 0 0 0 0 0 0 0 0 0 0 0 0 0 0 0 0 0 0 0 0 0 0 0 0 0 0 0 0 0 0
0 0 0 0 0 0 0 0 0 0 0 0 0 0 0 0 0 0 0 0 0 0 0 0 0 0 0 0 0 0 0 0 0 0 0 0 0 0 0 0 0 0 0
0 0 0 0 0 0 0 0 0 0 0 0 0 0 0 0 0 0 0 0 0 0 0 0 0 0 0 0 0 0 0 0 0 0 0 0 0 0 0 0 0 0 0
0 0 0 0 0 0 0 0 0 0 0 0 0 0 0 0 0 0 0 0 0 0 0 0 0 0 0 0 0 0 0 0 0 0 0 0 0 0 0 0 0 0 0
0 0 0 0 0 0 0 0 0 0 0 0 0 0 0 0 0 0 0 0 0 0 0 0 0 0 0 0 0 0 0 0 0 0 0 0 0 0 0 0 0 0 0
0 0 0 0 0 0 0 0 0 0 0 0 0 0 0 0 0 0 0 0 0 0 0 0 0 0 0 0 0 0 0 0 0 0 0 0 0 0 0 0 0 0 0
0 0 0 0 0 0 0 0 0 0 0 0 0 0 0 0 0 0 0 0 0 0 0 0 0 0 0 0 0 0 0 0 0 0 0 0 0 0 0 0 0 0 0
0 0 0 0 0 0 0 0 0 0 0 0 0 0 0 0 0 0 0 0 0 0 0 0 0 0 0 0 0 0 0 0 0 0 0 0 0 0 0 0 0 0 0
0 0 0 0 0 0 0 0 0 0 0 0 0 0 0 0 0 0 0 0 0 0 0 0 0 0 0 0 0 0 0 0 0 0 0 0 0 0 0 0 0 0 0
0 0 0 0 0 0 0 0 0 0 0 0 0 0 0 0 0 0 0 0 0 0 0 0 0 0 0 0 0 0 0 0 0 0 0 0 0 0 0 0 0 0 0
0 0 0 0 0 0 0 0 0 0 0 0 0 0 0 0 0 0 0 0 0 0 0 0 0 0 0 0 0 0 0 0 0 0 0 0 0 0 0 0 0 0 0
0 0 0 0 0 0 0 0 0 0 0 0 0 0 0 0 0 0 0 0 0 0 0 0 0 0 0 0 0 0 0 0 0 0 0 0 0 0 0 0 0 0 0
0 0 0 0 0 0 0 0 0 0 0 0 0 0 0 0 0 0 0 0 0 0 0 0 0 0 0 0 0 0 0 0 0 0 0 0 0 0 0 0 0 0 0
0 0 0 0 0 0 0 0 0 0 0 0 0 0 0 0 0 0 0 0 0 0 0 0 0 0 0 0 0 0 0 0 0 0 0 0 0 0 0 0 0 0 0
0 0 0 0 0 0 0 0 0 0 0 0 0 0 0 0 0 0 0 0 0 0 0 0 0 0 0 0 0 0 0 0 0 0 0 0 0 0 0 0 0 0 0
0 0 0 0 0 0 0 0 0 0 0 0 0 0 0 0 0 0 0 0 0 0 0 0 0 0 0 0 0 0 0 0 0 0 0 0 0 0 0 0 0 0 0
0 0 0 0 0 0 0 0 0 0 0 0 0 0 0 0 0 0 0 0 0 0 0 0 0 0 0 0 0 0 0 0 0 0 0 0 0 0 0 0 0 0 0
0 0 0 0 0 0 0 0 0 0 0 0 0 0 0 0 0 0 0 0 0 0 0 0 0 0 0 0 0 0 0 0 0 0 0 0 0 0 0 0 0 0 0
0 0 0 0 0 0 0 0 0 0 0 0 0 0 0 0 0 0 0 0 0 0 0 0 0 0 0 0 0 0 0 0 0 0 0 0 0 0 0 0 0 0 0
0 0 0 0 0 0 0 0 0 0 0 0 0 0 0 0 0 0 0 0 0 0 0 0 0 0 0 0 0 0 0 0 0 0 0 0 0 0 0 0 0 0 0
0 0 0 0 0 0 0 0 0 0 0 0 0 0 0 0 0 0 0 0 0 0 0 0 0 0 0 0 0 0 0 0 0 0 0 0 0 0 0 0 0 0 0
1 1 0 0 0 0 0 0 0 0 0 0 0 0 0 0 0 0 0 0 0 0 0 0 0 0 0 0 0 0 0 0 0 0 0 0 0 0 0 0 0 0 0
1 1 1 1 0 0 0 0 0 0 0 0 0 0 0 0 0 0 0 0 0 0 0 0 0 0 0 0 0 0 0 0 0 0 0 0 0 0 0 0 0 0 0
1 1 1 1 0 0 0 0 0 0 0 0 0 0 0 0 0 0 0 0 0 0 0 0 0 0 0 0 0 0 0 0 0 0 0 0 0 0 0 0 0 0 0
1 1 1 0 0 0 0 0 0 0 0 0 0 0 0 0 0 0 0 0 0 0 0 0 0 0 0 0 0 0 0 0 0 0 0 0 0 0 0 0 0 0 0
1 1 1 0 0 0 0 0 0 0 0 0 0 0 0 0 0 0 0 0 0 0 0 0 0 0 0 0 0 0 0 0 0 0 0 0 0 0 0 0 0 0 0
Wind_Speed
4 3 3 2 3 2 2 2 2 2 2 3 3 3 3 4 4 4 4 13 14 13 13 13 13 12 12 12 12 11 11 11 10 10 9 9 9 8 8 8 8 7 6
4 4 3 3 3 3 3 3 3 2 2 2 3 3 3 4 5 5 4 8 13 13 13 13 14 13 13 13 13 12 12 12 12 11 10 10 10 9 9 9 9 8 7
5 5 4 3 3 3 3 2 2 2 2 2 3 3 3 4 5 6 6 4 6 12 14 13 14 14 14 14 14 13 13 12 12 12 11 10 10 9 9 9 9 9 8
6 4 4 3 3 3 3 3 2 2 2 2 2 2 2 3 5 6 6 6 5 6 10 15 14 14 15 15 15 14 14 14 13 13 12 11 11 10 10 10 10 9 8
6 5 4 3 3 2 2 3 2 2 2 2 3 3 3 3 4 6 6 7 7 6 6 10 15 14 16 16 16 16 15 15 14 14 14 13 13 12 11 11 10 10 9
6 5 4 4 4 3 2 2 3 2 2 2 3 3 3 3 3 4 6 6 7 8 7 7 7 10 16 17 17 16 16 16 16 15 15 15 14 13 12 12 11 11 11
5 5 3 3 3 3 4 4 3 3 2 1 0 2 3 3 3 4 4 4 6 7 7 7 6 6 6 14 15 16 17 16 16 16 16 16 15 14 13 13 12 12 12
5 5 5 4 4 3 3 3 3 2 2 2 3 1 2 3 3 3 3 4 5 5 6 8 7 7 6 5 8 16 16 17 17 17 16 16 15 14 14 14 13 12 12
4 4 5 4 4 4 4 4 4 4 3 2 3 3 3 3 3 3 3 4 3 3 5 5 8 8 8 6 6 12 17 17 17 17 17 16 15 15 15 14 14 13 13
4 4 5 5 4 3 4 4 4 3 3 3 2 3 3 4 2 3 3 2 3 4 5 5 6 7 8 6 7 11 14 15 17 17 16 16 15 15 15 15 15 14 14
3 3 4 4 4 4 4 4 3 4 3 4 3 2 2 2 3 3 4 3 2 3 4 4 4 4 6 7 6 9 13 14 15 15 15 15 15 16 16 16 16 15 15
2 2 3 3 4 3 4 4 4 4 4 4 3 3 3 3 3 3 4 4 3 3 3 3 3 4 5 5 8 11 12 13 13 14 14 15 15 15 16 16 16 16 15
2 3 3 3 3 3 4 4 4 4 4 4 4 4 4 4 3 3 3 3 3 3 2 2 3 3 3 3 5 9 10 11 11 12 13 13 13 13 14 14 14 14 14
3 3 3 3 4 4 4 3 3 4 4 4 5 4 4 4 3 3 3 3 2 2 2 3 2 2 2 2 3 5 5 8 10 10 11 11 11 11 11 11 11 11 11
2 3 3 3 3 3 3 3 3 4 3 4 4 4 4 3 3 3 3 4 4 3 3 3 2 2 2 1 2 2 3 5 8 9 10 10 10 10 10 10 9 9 9
2 2 2 2 2 3 3 3 3 3 3 4 3 3 3 3 2 2 2 2 3 4 4 3 3 3 2 1 2 2 2 4 5 6 7 8 9 9 8 8 8 8 8
3 3 2 2 2 2 2 2 2 3 3 3 3 3 3 3 2 2 2 2 2 2 4 3 2 2 2 2 1 2 2 2 2 5 6 7 7 7 7 7 7 7 7
3 3 2 1 1 1 1 1 2 2 2 2 2 2 2 2 2 2 1 2 2 3 3 4 2 2 2 3 2 2 1 1 2 3 5 5 6 6 6 6 6 6 6
3 2 2 2 1 1 1 1 1 1 1 1 1 1 1 1 2 2 2 2 2 2 2 3 3 2 2 1 1 1 1 1 1 1 2 3 4 5 5 5 6 5 5
4 3 3 2 1 0 0 1 1 1 1 1 1 1 1 1 2 2 2 2 2 1 1 2 2 2 1 1 1 1 1 1 1 0 0 1 2 4 4 5 5 5 5
4 3 3 2 1 1 0 1 1 1 1 1 1 0 1 0 1 1 1 1 1 1 1 1 2 1 1 1 1 1 1 1 1 1 0 1 1 1 2 3 4 5 5
3 3 3 2 1 0 1 1 0 1 1 1 1 1 0 1 2 1 1 0 1 1 1 1 2 2 3 2 1 1 1 1 2 1 1 1 1 1 2 2 3 5 5
4 4 3 2 1 0 1 1 1 0 0 1 1 1 1 1 1 1 1 1 2 1 1 2 3 3 3 3 2 2 2 2 2 2 1 1 1 2 2 2 4 5 5
4 4 3 3 2 0 1 1 1 0 0 1 1 1 0 1 2 0 0 1 1 2 2 1 2 3 2 2 3 3 2 1 0 0 1 1 1 1 1 1 3 4 5
3 3 2 3 2 0 1 1 0 1 0 1 1 1 0 0 2 1 1 1 2 2 3 3 2 0 1 2 2 2 1 1 1 1 0 1 1 1 1 1 2 4 4
4 3 3 2 3 1 1 1 1 1 1 0 1 2 2 1 2 1 1 0 1 2 2 3 3 3 1 1 1 2 2 2 1 1 1 1 1 1 1 1 1 1 2
Wind_Direction
176 176 183 189 193 186 185 196 206 209 219 232 231 216 200 188 184 183 189 190 189 190 191 189 190 193 194 195 196 197 197 197 196 196 196 195 197 197 192 191 193 193 194
173 173 181 189 198 197 199 196 202 209 221 226 234 223 203 185 191 190 190 194 196 195 197 197 198 200 202 204 205 206 206 205 204 203 203 201 202 203 203 203 203 203 202
173 173 177 188 199 193 190 188 201 211 220 225 237 232 214 196 190 195 194 196 201 204 204 206 206 207 209 210 212 212 211 210 208 205 204 205 206 206 207 208 208 207 206
176 175 178 192 196 182 176 179 187 201 225 224 236 241 224 208 202 201 198 199 199 206 212 214 215 215 215 217 218 217 215 214 211 207 207 208 210 210 211 211 211 211 212
180 178 186 192 185 174 185 195 184 190 207 223 236 241 236 220 211 210 203 204 203 206 208 217 219 220 221 223 223 222 219 216 213 210 212 213 215 214 214 213 215 215 216
184 181 190 194 178 170 190 192 191 199 202 210 245 251 247 233 220 214 213 209 208 212 210 214 217 224 226 226 226 225 223 220 216 215 216 216 217 216 214 216 218 218 220
186 181 186 184 178 181 197 197 185 194 210 173 127 309 304 272 243 234 221 211 215 215 207 209 212 216 226 228 228 226 225 223 221 219 219 219 219 216 215 217 218 220 222
188 185 183 184 184 185 197 199 187 177 210 177 161 153 316 324 295 247 231 222 222 211 210 213 211 213 218 217 223 224 225 226 227 224 221 221 221 218 216 218 218 219 220
189 189 189 188 190 188 200 205 193 186 207 220 182 162 176 237 289 295 246 229 215 209 220 218 214 214 214 214 220 226 225 225 227 226 224 221 219 217 217 218 218 219 219
195 198 197 194 191 190 200 213 197 189 188 214 227 212 196 181 192 294 307 270 236 223 222 226 224 216 213 212 214 215 221 224 226 226 224 222 219 217 218 219 220 221 222
209 208 200 195 194 197 203 210 200 201 198 202 208 211 217 215 195 200 272 292 293 256 235 227 225 222 218 215 216 219 219 222 221 223 225 224 221 220 219 221 224 226 226
227 226 204 198 200 200 206 210 208 212 215 214 210 201 198 204 205 200 233 253 261 266 253 239 230 225 223 220 221 219 216 217 220 222 224 225 225 225 223 224 226 229 230
217 228 215 203 207 210 215 213 212 220 219 220 220 218 217 221 205 196 213 240 246 263 273 263 245 235 228 221 224 220 216 214 216 220 222 223 225 226 225 225 228 232 234
209 215 210 208 212 213 220 216 222 230 227 230 238 231 229 234 218 205 204 209 242 264 257 256 265 240 231 221 217 226 225 217 216 217 219 221 224 225 225 224 224 226 230
210 210 209 207 215 220 225 219 229 239 234 235 244 243 240 244 235 224 214 200 200 232 251 247 244 243 229 224 220 218 230 223 218 216 219 220 220 221 223 222 221 223 224
205 199 212 212 220 230 233 222 234 244 239 246 242 241 249 252 253 245 233 224 207 207 234 238 233 241 230 223 215 216 221 221 220 220 219 218 220 221 220 220 222 221 219
197 201 212 216 228 242 244 233 242 242 237 248 250 241 248 240 246 248 235 233 227 205 233 256 238 246 223 227 245 238 221 207 206 213 218 215 213 210 209 210 212 211 210
196 194 190 195 216 242 257 253 261 258 242 245 251 242 254 253 243 244 235 244 239 218 216 249 253 238 232 224 224 223 227 198 198 198 209 209 206 203 204 205 205 205 203
188 182 163 172 190 205 260 276 264 267 260 247 244 242 267 257 259 251 240 252 259 256 224 229 247 233 236 226 210 227 216 237 211 191 194 205 206 200 198 198 198 198 198
176 173 163 164 172 178 299 312 301 256 269 276 256 217 234 228 249 260 254 252 250 248 235 238 246 241 234 227 171 193 266 297 274 281 183 195 205 210 210 202 196 192 193
176 162 152 153 154 135 330 305 283 264 261 272 286 251 235 241 256 255 249 246 230 222 225 236 253 250 239 217 209 193 213 248 282 196 179 255 236 240 228 209 199 196 192
163 148 154 155 147 90 331 333 324 280 271 252 272 290 295 24 357 329 308 77 137 198 218 228 242 244 243 231 201 185 180 188 250 218 180 251 211 241 244 218 200 194 195
164 156 163 157 155 290 329 327 317 205 252 274 275 279 325 351 344 335 330 8 9 0 246 221 237 244 235 219 185 187 199 215 230 211 172 240 230 241 251 223 200 197 195
164 166 171 165 160 360 345 329 315 141 95 300 278 229 222 316 330 327 148 8 343 335 319 274 243 247 237 215 190 196 197 206 306 293 155 205 224 242 246 257 220 206 204
157 162 161 157 153 216 347 342 20 122 98 341 349 18 19 289 339 39 89 27 338 328 346 15 16 35 137 135 133 117 110 104 293 264 161 166 214 257 248 249 238 215 213
153 150 140 152 158 151 36 35 107 113 125 23 20 17 16 6 3 46 97 112 316 310 341 3 18 21 27 89 131 159 172 171 191 241 215 164 172 139 265 259 238 217 215